CAPE
149 876 869 209 15 0 0 0 4 132 350 492 676 824 753 629 644 610 499 621 652 420 290 300 334 375 293 106 16 10 0 21 114 276 185 101 1 2 0 0 0 1 51
267 948 887 256 9 0 0 0 25 168 577 850 928 766 543 409 432 510 535 661 669 448 330 260 170 51 2 1 1 0 0 0 0 0 5 29 15 20 0 0 0 0 0
402 911 932 280 3 0 0 9 126 344 506 632 701 627 602 400 494 497 559 671 647 488 333 213 42 0 0 0 0 0 0 0 0 0 0 0 0 4 0 0 0 0 0
488 813 890 302 35 0 0 4 154 520 562 501 463 407 397 418 488 470 386 630 668 658 451 318 34 0 0 0 0 0 0 0 0 0 0 0 0 0 0 0 0 0 0
515 810 810 317 125 11 0 0 120 353 441 407 264 127 188 334 372 410 419 637 736 719 598 293 2 0 0 0 0 0 0 0 0 0 0 0 0 58 4 0 0 0 0
526 760 731 314 195 53 45 13 16 162 259 249 145 40 87 189 243 248 330 405 475 488 264 10 0 0 0 0 0 0 0 0 0 0 0 0 0 20 0 0 0 0 0
436 627 626 326 201 132 186 97 2 14 108 148 120 74 86 106 207 216 240 271 207 100 14 0 0 0 0 0 0 0 0 0 0 0 0 0 0 0 0 0 0 0 0
228 502 553 381 188 192 239 191 6 0 21 87 88 109 135 64 74 214 344 273 142 35 0 0 0 0 0 0 0 0 0 42 39 5 0 0 0 8 0 0 0 0 0
339 404 504 397 189 165 124 145 10 0 0 20 23 61 101 34 52 99 136 239 184 25 0 0 0 0 0 0 0 0 16 104 83 9 0 0 0 19 76 18 0 0 0
249 371 391 368 202 114 75 84 5 0 0 0 0 16 45 35 50 105 135 173 102 29 0 0 0 0 0 0 0 6 69 104 151 143 1 0 0 56 273 286 125 64 32
177 320 367 325 196 59 9 56 27 0 0 1 0 0 3 1 2 21 21 21 10 0 0 0 0 0 0 0 8 78 156 158 143 169 16 3 19 97 331 126 67 50 44
14 177 265 259 166 45 10 23 19 0 0 0 0 0 0 0 0 0 0 0 0 0 0 0 0 0 0 5 75 130 110 174 199 124 59 32 18 168 504 460 215 248 191
2 67 140 167 116 30 0 8 5 0 0 0 0 0 0 0 0 0 0 0 0 0 0 0 0 0 0 3 103 181 206 235 73 1 0 1 18 75 317 286 10 508 177
0 4 74 91 35 24 0 0 0 0 0 0 0 0 0 0 0 0 0 0 0 0 0 0 0 0 0 33 227 380 181 7 0 0 0 0 0 0 63 426 123 0 0
0 0 5 26 11 12 0 0 0 0 0 0 0 0 0 0 0 0 0 0 0 0 0 0 0 0 16 112 244 158 0 0 0 0 0 0 0 1 35 36 0 0 0
9 0 0 0 5 1 0 0 0 0 0 0 0 0 0 0 0 0 0 71 54 18 6 0 0 121 154 173 0 0 0 0 0 0 0 0 0 0 0 0 0 0 0
166 21 0 0 0 0 0 0 0 0 0 0 0 0 1 0 0 0 4 157 200 106 59 0 25 54 0 0 0 0 0 0 0 0 0 0 0 0 0 0 0 0 0
303 208 65 1 0 0 0 0 0 0 0 0 0 0 0 7 0 0 0 76 291 200 113 65 132 0 0 0 0 0 0 0 0 0 0 0 0 0 0 0 0 0 0
586 376 251 95 46 2 0 0 0 0 0 0 0 0 4 13 27 37 71 254 427 369 270 209 2 0 0 0 0 0 0 0 0 0 0 0 0 0 0 0 0 0 0
942 746 496 290 136 57 2 0 0 0 0 0 0 0 9 26 70 120 203 356 515 399 288 71 0 0 0 0 0 0 0 0 0 0 0 0 0 0 0 0 0 0 0
822 1025 975 810 549 198 125 71 44 20 2 0 0 0 13 38 100 128 286 428 491 300 189 1 0 0 0 0 0 0 0 0 0 0 0 0 0 0 0 0 0 0 0
877 1001 1125 1122 930 649 344 243 116 94 77 95 104 90 66 87 205 280 347 555 454 191 17 0 0 0 0 0 0 0 0 0 0 0 0 0 0 0 0 0 0 0 0
499 834 1091 1181 1159 1023 755 392 342 322 269 322 298 290 231 325 389 420 401 446 292 81 25 0 0 0 0 0 0 0 0 0 0 0 0 0 0 0 0 0 0 0 0
0 349 605 964 1141 1183 986 853 779 771 636 500 396 433 458 510 555 471 391 285 213 47 9 0 0 0 0 0 0 0 0 0 0 0 0 0 0 0 0 0 0 0 0
0 0 9 388 769 1026 1189 1110 943 906 854 693 559 590 586 514 555 520 352 183 112 8 0 0 0 0 0 0 0 0 0 0 0 0 0 0 0 0 0 0 0 0 0
0 0 0 0 150 729 1023 1182 1118 1077 1020 842 683 697 610 501 499 442 216 64 16 0 0 0 0 0 0 0 0 0 0 0 0 0 0 0 0 0 0 0 0 0 0
CIN
-559 -299 -276 -432 -235 -0 -0 -0 -299 -395 -323 -282 -222 -173 -182 -201 -187 -183 -199 -156 -130 -166 -203 -194 -175 -154 -200 -317 -413 -434 -0 -122 -270 -138 -195 -253 -298 -291 -0 -0 -0 -57 -301
-573 -306 -290 -438 -527 -0 -0 -0 -478 -377 -281 -224 -188 -199 -239 -274 -259 -224 -211 -167 -141 -170 -188 -211 -263 -353 -39 -44 -45 -0 -0 -13 -1 -0 -285 -398 -430 -396 -0 -0 -0 -0 -0
-498 -331 -287 -432 -253 -0 -0 -532 -400 -342 -308 -273 -237 -232 -220 -259 -225 -221 -209 -173 -147 -163 -188 -238 -375 -0 -0 -0 -0 -0 -0 -0 -0 -0 -0 -0 -0 -382 -0 -0 -0 -0 -0
-488 -356 -304 -455 -528 -0 -0 -169 -392 -291 -280 -284 -279 -274 -268 -246 -220 -221 -235 -161 -138 -119 -154 -183 -429 -0 -0 -0 -0 -0 -0 -0 -0 -0 -0 -0 -0 -0 -0 -0 -0 -0 -0
-469 -353 -343 -475 -500 -390 -0 -0 -407 -339 -311 -302 -313 -356 -326 -278 -254 -232 -223 -148 -105 -97 -118 -213 -66 -0 -0 -0 -0 -0 -0 -0 -0 -0 -0 -0 -0 -417 -316 -0 -0 -0 -0
-478 -389 -373 -483 -470 -474 -472 -472 -478 -406 -370 -345 -361 -429 -385 -334 -308 -294 -248 -211 -178 -162 -256 -217 -0 -0 -0 -0 -0 -0 -0 -0 -0 -0 -0 -0 -0 -502 -0 -0 -0 -0 -0
-519 -442 -404 -467 -473 -451 -411 -448 -198 -326 -420 -389 -380 -399 -380 -374 -334 -324 -295 -263 -304 -422 -545 -0 -0 -0 -0 -0 -0 -0 -0 -0 -0 -0 -0 -0 -0 -0 -0 -0 -0 -0 -0
-557 -470 -428 -448 -470 -451 -410 -416 -390 -0 -493 -432 -423 -388 -365 -443 -432 -321 -260 -274 -357 -513 -0 -0 -0 -0 -0 -0 -0 -0 -0 -487 -498 -201 -0 -0 -0 -511 -0 -0 -0 -0 -0
-525 -483 -436 -436 -475 -457 -468 -442 -537 -0 -16 -502 -504 -442 -391 -497 -479 -414 -365 -287 -327 -527 -0 -0 -0 -0 -0 -0 -0 -0 -523 -402 -409 -376 -0 -0 -0 -433 -340 -356 -0 -0 -0
-537 -477 -450 -443 -470 -490 -481 -457 -515 -0 -0 -0 -0 -512 -466 -497 -476 -403 -375 -326 -399 -514 -0 -0 -0 -0 -0 -0 -0 -541 -425 -392 -335 -337 -234 -0 -47 -336 -180 -190 -282 -364 -393
-542 -497 -466 -447 -475 -528 -563 -482 -490 -0 -0 -68 -0 -0 -578 -424 -397 -526 -530 -535 -417 -0 -0 -0 -0 -0 -0 -0 -506 -391 -310 -311 -316 -285 -441 -131 -365 -251 -138 -232 -282 -307 -314
-639 -546 -490 -482 -488 -529 -586 -536 -524 -0 -0 -0 -0 -0 -0 -0 -0 -0 -0 -0 -0 -0 -0 -0 -0 -0 -0 -544 -387 -290 -319 -256 -239 -288 -344 -355 -355 -204 -63 -82 -159 -134 -154
-284 -620 -575 -517 -532 -552 -0 -582 -584 -0 -0 -0 -0 -0 -0 -0 -0 -0 -0 -0 -0 -0 -0 -0 -0 -0 -0 -298 -289 -208 -195 -183 -319 -49 -0 -64 -345 -255 -98 -101 -307 -42 -148
-0 -539 -611 -569 -575 -580 -0 -0 -0 -0 -0 -0 -0 -0 -0 -0 -0 -0 -0 -0 -0 -0 -0 -0 -0 -0 -0 -316 -154 -106 -186 -366 -0 -0 -0 -0 -0 -0 -238 -50 -160 -0 -0
-0 -0 -455 -663 -632 -606 -0 -0 -0 -0 -0 -0 -0 -0 -0 -0 -0 -0 -0 -0 -0 -0 -0 -0 -0 -0 -268 -187 -125 -171 -0 -0 -0 -0 -0 -0 -0 -68 -110 -93 -0 -0 -0
-555 -0 -0 -66 -462 -128 -0 -0 -0 -0 -0 -0 -0 -0 -0 -0 -0 -0 -0 -322 -324 -348 -216 -0 -0 -171 -149 -148 -0 -0 -0 -0 -0 -0 -0 -0 -0 -0 -0 -0 -0 -0 -0
-540 -646 -0 -0 -0 -0 -0 -0 -0 -0 -0 -0 -0 -0 -117 -0 -0 -0 -94 -251 -228 -274 -284 -0 -189 -173 -0 -0 -0 -0 -0 -0 -0 -0 -0 -0 -0 -0 -0 -0 -0 -0 -0
-518 -552 -696 -103 -0 -0 -0 -0 -0 -0 -0 -0 -0 -0 -0 -535 -0 -0 -0 -299 -177 -213 -249 -238 -177 -0 -0 -0 -0 -0 -0 -0 -0 -0 -0 -0 -0 -0 -0 -0 -0 -0 -0
-424 -493 -529 -674 -730 -448 -0 -0 -0 -0 -0 -0 -0 -0 -581 -515 -456 -395 -342 -214 -147 -146 -164 -174 -35 -0 -0 -0 -0 -0 -0 -0 -0 -0 -0 -0 -0 -0 -0 -0 -0 -0 -0
-414 -456 -485 -536 -654 -780 -772 -0 -0 -0 -0 -0 -0 -0 -572 -508 -443 -364 -290 -189 -127 -137 -162 -249 -0 -0 -0 -0 -0 -0 -0 -0 -0 -0 -0 -0 -0 -0 -0 -0 -0 -0 -0
-400 -391 -409 -435 -522 -636 -681 -685 -717 -721 -672 -0 -0 -0 -563 -466 -415 -371 -283 -193 -145 -170 -179 -122 -0 -0 -0 -0 -0 -0 -0 -0 -0 -0 -0 -0 -0 -0 -0 -0 -0 -0 -0
-353 -390 -412 -401 -448 -524 -587 -625 -632 -641 -642 -570 -518 -529 -502 -434 -387 -338 -284 -205 -184 -228 -327 -0 -0 -0 -0 -0 -0 -0 -0 -0 -0 -0 -0 -0 -0 -0 -0 -0 -0 -0 -0
-338 -387 -422 -448 -454 -500 -528 -527 -501 -473 -507 -462 -492 -463 -480 -408 -373 -299 -287 -238 -232 -296 -339 -0 -0 -0 -0 -0 -0 -0 -0 -0 -0 -0 -0 -0 -0 -0 -0 -0 -0 -0 -0
-0 -351 -406 -422 -450 -391 -430 -448 -459 -475 -453 -531 -535 -466 -437 -411 -343 -306 -290 -277 -264 -341 -369 -0 -0 -0 -0 -0 -0 -0 -0 -0 -0 -0 -0 -0 -0 -0 -0 -0 -0 -0 -0
-0 -0 -381 -398 -423 -411 -386 -374 -382 -387 -471 -457 -475 -439 -404 -409 -360 -315 -327 -337 -311 -359 -0 -0 -0 -0 -0 -0 -0 -0 -0 -0 -0 -0 -0 -0 -0 -0 -0 -0 -0 -0 -0
-0 -0 -0 -0 -368 -399 -369 -348 -340 -373 -361 -358 -438 -452 -440 -419 -382 -346 -374 -439 -302 -0 -0 -0 -0 -0 -0 -0 -0 -0 -0 -0 -0 -0 -0 -0 -0 -0 -0 -0 -0 -0 -0
Wind_Speed
20 23 24 23 23 24 25 26 26 26 26 25 24 24 23 23 23 23 24 24 24 24 24 23 24 23 23 22 23 24 24 20 13 11 28 27 29 29 29 29 28 27 27
23 24 24 23 23 23 24 25 24 24 24 25 24 23 22 22 22 23 24 24 24 24 23 22 21 20 20 20 19 19 19 12 7 14 18 14 27 28 28 28 27 26 25
23 23 24 23 22 22 23 23 23 22 23 24 24 23 22 22 22 22 24 24 23 23 24 23 22 20 19 18 17 16 11 6 10 19 24 25 25 26 26 26 26 25 24
22 22 23 22 22 21 21 21 22 22 21 21 21 21 21 21 21 22 22 23 23 25 25 25 25 23 22 21 23 12 5 6 12 20 21 22 23 24 24 24 25 24 24
20 21 21 22 21 20 20 20 20 20 20 20 20 20 20 20 19 19 20 21 22 23 23 23 23 24 23 22 23 19 15 16 16 21 20 21 21 21 22 23 23 23 23
18 19 21 21 20 20 19 19 19 19 19 19 19 19 19 18 17 17 18 19 20 21 21 21 20 19 15 19 20 21 21 22 22 22 19 19 20 20 21 21 22 22 22
17 17 19 20 20 19 18 18 17 18 18 18 18 18 17 16 16 16 16 16 17 18 18 18 17 17 18 18 18 18 18 19 20 21 17 17 18 19 19 20 21 21 21
16 17 18 19 19 19 18 17 16 16 17 17 16 15 15 14 14 14 15 14 14 15 16 16 16 17 17 18 18 18 18 18 19 19 18 16 16 17 18 19 20 21 22
13 15 16 17 18 17 17 17 16 16 15 15 15 14 12 12 12 12 12 12 12 13 14 14 15 16 16 17 17 17 17 18 19 20 17 15 15 16 17 19 20 21 22
11 13 15 15 15 16 16 16 15 15 15 13 13 12 10 10 9 9 9 10 10 11 12 13 14 14 15 16 17 17 17 17 18 19 18 15 14 15 17 20 21 21 22
12 11 13 14 13 14 14 14 14 14 13 12 10 9 8 7 7 7 8 9 10 11 11 12 13 13 14 15 16 16 16 17 18 19 18 16 13 15 18 21 22 23 23
15 14 11 11 13 12 11 12 12 12 11 10 9 6 6 5 5 6 7 8 9 11 12 12 12 13 14 14 15 16 16 18 18 18 18 18 15 17 21 24 22 22 22
13 14 14 11 10 11 10 10 10 9 10 9 8 7 3 3 3 4 6 7 10 11 13 12 12 13 13 14 16 16 17 18 17 18 19 19 17 18 21 23 23 22 22
12 12 13 14 11 11 8 9 9 9 9 9 9 7 4 1 2 3 4 7 8 10 12 13 13 13 14 15 15 15 16 17 17 17 18 19 18 19 20 21 22 23 23
12 13 13 14 15 14 11 8 9 10 9 11 10 7 4 2 1 1 3 6 8 10 10 12 12 14 15 14 15 14 15 15 15 16 18 19 19 19 19 21 22 23 24
11 13 14 15 15 15 16 13 11 10 9 9 9 8 7 4 3 2 3 4 6 6 9 11 14 13 12 12 14 14 14 14 15 15 17 18 19 20 21 21 23 24 25
11 10 12 15 16 17 18 16 14 12 9 9 8 8 7 5 4 4 4 5 5 5 7 10 12 11 11 12 13 14 13 13 14 15 16 18 19 21 21 22 24 26 27
8 12 11 11 15 17 16 15 14 13 13 11 9 8 8 7 6 5 6 6 7 7 7 8 7 8 9 11 13 14 13 13 14 15 16 18 20 21 22 24 26 27 28
14 11 14 13 14 15 13 11 12 11 13 11 10 10 10 9 8 8 7 7 8 8 8 6 6 6 7 10 12 13 13 14 15 14 16 18 20 21 22 25 26 28 29
16 15 13 14 13 12 11 11 10 11 13 13 13 12 11 11 10 9 9 8 9 10 9 6 6 9 9 8 11 12 13 14 13 14 15 17 19 21 23 25 27 29 30
17 18 18 17 16 13 14 14 14 17 14 14 13 13 13 12 11 11 11 10 10 9 8 7 9 9 10 8 11 14 14 14 14 14 15 17 19 22 24 25 27 28 29
18 19 19 21 19 18 17 17 14 14 15 15 14 14 14 14 12 12 12 11 11 10 10 9 9 11 14 7 12 14 16 17 15 15 15 16 19 22 24 25 28 28 28
21 19 21 22 22 21 20 19 19 18 21 16 17 17 17 16 15 14 13 12 13 13 13 12 10 10 11 11 13 13 16 18 17 16 15 17 20 22 24 26 27 27 27
27 25 25 28 24 25 23 21 21 21 20 21 19 18 17 17 17 15 14 14 14 15 16 14 12 12 12 12 13 15 17 17 19 21 18 18 20 23 25 28 27 26 28
34 31 27 26 26 26 27 26 25 25 23 23 19 19 19 19 18 18 17 16 16 17 18 18 15 14 14 13 14 14 16 18 19 21 24 22 22 24 24 26 25 26 29
32 33 36 32 27 25 26 28 29 29 27 27 23 21 20 20 20 19 18 18 18 18 19 18 16 16 14 14 15 14 16 19 20 21 24 24 25 24 25 21 24 26 28
Wind_Direction
127 124 123 115 109 101 98 98 96 93 94 90 84 82 78 71 68 68 66 64 61 58 58 56 56 52 49 45 44 46 45 30 9 4 75 93 78 84 84 67 63 67 60
120 124 124 118 111 103 101 100 96 94 93 92 91 83 76 72 72 71 70 69 67 62 59 55 50 45 40 37 33 28 26 359 335 6 21 131 76 80 72 59 51 44 35
120 122 124 120 113 107 102 101 98 96 94 95 94 90 83 77 75 75 79 75 69 67 67 61 54 46 38 29 18 11 344 258 177 120 88 81 81 78 78 65 49 40 31
119 122 125 121 116 111 106 103 102 101 97 95 92 89 86 82 81 81 82 82 79 96 103 105 83 64 51 44 101 153 184 250 160 117 111 102 91 79 81 69 49 41 34
116 122 125 123 119 115 109 106 106 104 101 98 95 92 90 85 78 75 76 80 89 106 108 102 102 83 65 57 71 114 133 123 125 98 103 97 89 87 74 65 53 50 46
115 121 126 125 122 119 114 110 110 108 107 104 104 99 97 88 79 76 77 79 84 90 92 91 71 47 7 36 51 51 49 50 44 55 82 81 69 74 64 57 47 38 34
114 120 126 127 125 123 119 116 113 112 111 110 107 105 98 87 81 79 75 71 69 79 78 65 47 36 30 28 28 22 17 13 22 25 64 68 62 61 57 52 43 36 31
113 119 125 129 128 126 124 121 118 116 116 113 108 105 97 87 83 80 79 71 62 58 61 57 48 36 32 32 29 15 9 9 6 7 34 61 55 51 45 37 33 26 19
101 115 124 129 132 131 130 128 125 123 121 118 112 105 93 86 76 71 66 62 57 50 50 42 35 29 25 21 13 11 6 9 15 20 40 60 60 51 37 25 18 18 14
101 116 126 129 133 134 133 134 131 131 129 122 116 107 94 81 68 50 41 39 36 35 32 29 25 22 15 12 7 5 7 7 1 6 20 46 52 41 25 11 5 7 4
116 122 129 135 136 138 137 139 138 139 136 129 120 111 99 79 61 40 24 15 9 8 8 6 10 12 10 7 11 13 17 360 351 351 358 17 34 20 11 2 358 355 355
136 138 136 139 145 142 140 142 144 143 141 137 129 113 100 85 65 42 15 4 0 356 354 353 355 356 357 3 2 3 1 350 346 348 351 355 10 4 353 349 355 356 357
138 143 150 149 149 151 149 150 151 151 151 150 147 137 108 59 35 23 16 360 346 344 343 345 348 348 348 350 349 348 346 349 351 348 346 351 2 359 353 355 354 357 0
148 150 155 158 159 161 160 163 164 166 165 165 163 156 145 94 12 11 359 350 352 347 339 338 341 339 339 340 346 350 349 350 351 354 354 357 1 1 2 2 2 1 1
163 165 165 164 167 169 172 176 178 178 178 174 172 173 176 188 208 336 344 339 337 335 339 340 337 332 331 338 341 348 350 355 356 359 355 359 3 4 4 3 3 0 358
171 174 171 174 175 174 179 182 187 189 190 186 185 185 187 209 237 255 296 320 328 332 333 335 330 331 338 343 345 347 351 353 355 359 359 359 359 359 359 360 358 356 354
190 180 179 178 180 183 186 187 188 192 202 211 217 208 205 222 229 249 264 287 305 317 325 326 326 333 338 341 341 342 346 350 353 355 356 355 356 355 355 355 351 348 348
229 202 193 185 187 189 189 190 192 193 197 208 230 240 243 253 248 250 257 271 293 305 312 315 318 331 336 335 334 334 338 341 345 348 350 349 348 349 350 349 348 346 346
226 230 210 203 198 196 197 196 198 201 200 204 211 217 228 245 251 256 259 272 290 294 299 300 308 315 322 327 330 332 334 336 339 344 346 347 350 351 349 346 345 345 344
257 257 242 221 219 213 215 220 221 222 217 214 216 222 227 236 251 255 263 267 285 288 287 282 287 310 313 321 328 331 332 334 339 343 346 350 351 350 348 346 345 343 344
261 251 240 230 234 235 222 226 227 224 231 229 230 232 236 237 241 248 260 260 273 268 261 267 294 297 307 313 322 321 324 330 334 337 341 344 345 346 346 345 345 345 345
261 249 248 233 238 235 240 242 249 255 258 251 249 244 240 235 236 239 249 253 250 258 256 256 273 292 302 292 309 316 315 316 320 329 337 341 343 345 344 346 345 345 346
281 265 249 240 241 237 245 263 270 278 281 263 247 243 236 235 237 235 240 248 250 249 248 245 253 264 285 294 302 312 316 311 321 323 327 335 339 342 344 344 345 347 348
303 287 278 272 263 263 260 254 248 247 253 245 254 255 248 243 243 242 246 247 247 250 254 250 253 264 279 282 299 301 311 319 317 320 325 328 335 337 342 342 343 346 346
299 296 289 283 274 265 259 254 258 255 252 276 265 260 255 255 246 243 248 253 252 254 255 256 254 257 272 278 288 297 303 310 315 316 318 325 331 333 339 341 343 343 343
305 300 294 291 284 276 266 259 256 251 258 270 268 261 258 255 250 246 250 254 255 255 252 253 248 250 261 277 285 288 295 303 306 312 314 322 327 332 336 343 343 344 344